All
K13-A Airport EHJR Weather
|
(EHJR)
Clear skies
Windy |
|
10 °C |
There is no TAF data available at EHJR or any nearby airports.
Recent EHJR METAR history
| Date | Time (CEST) | Flight Rules | Wind Dir. | Speed | Type | Height AGL (ft) | Visibility | Temp (°C) | Temp (°F) | Dew Point (°C) | Dew Point (°F) | Rel. Humid. | Pressure | Density Altitude | Remarks |
|---|---|---|---|---|---|---|---|---|---|---|---|---|---|---|---|
| 10-May | 06:25 | n/a | 20° | 18 kt | Missing | 10° | 50° | 8° | 46° | 87% | 1017 mb | -512 ft | |||
| 10-May | 05:55 | n/a | 10° | 17 kt | Missing | 10° | 50° | 8° | 46° | 87% | 1018 mb | -542 ft | |||
| 10-May | 05:25 | n/a | 20° | 17 kt | Missing | 10° | 50° | 8° | 46° | 87% | 1018 mb | -542 ft | |||
| 10-May | 04:55 | n/a | 20° | 16 kt | Missing | 10° | 50° | 8° | 46° | 87% | 1018 mb | -542 ft | |||
| 10-May | 04:25 | n/a | 20° | 16 kt | Missing | 11° | 51° | 9° | 48° | 87% | 1018 mb | -422 ft | |||
| 10-May | 03:55 | n/a | 10° | 16 kt | Missing | 11° | 51° | 9° | 48° | 87% | 1018 mb | -422 ft | |||
| 10-May | 03:25 | n/a | 20° | 13 kt | Missing | 11° | 51° | 9° | 48° | 87% | 1018 mb | -422 ft | |||
| 10-May | 02:55 | n/a | 10° | 14 kt | Missing | 11° | 51° | 10° | 50° | 94% | 1018 mb | -422 ft | |||
| 10-May | 02:25 | n/a | 360° | 12 kt | Missing | 11° | 51° | 10° | 50° | 94% | 1019 mb | -451 ft | |||
| 10-May | 01:55 | n/a | 10° | 9 kt | Missing | 11° | 51° | 9° | 48° | 87% | 1018 mb | -422 ft | |||
| 10-May | 01:25 | n/a | 20° | 8 kt | Missing | 11° | 51° | 9° | 48° | 87% | 1018 mb | -422 ft | |||
| 10-May | 00:55 | n/a | 40° | 10 kt | Missing | 11° | 51° | 9° | 48° | 87% | 1018 mb | -422 ft | |||
| 10-May | 00:25 | n/a | 40° | 10 kt | Missing | 12° | 53° | 9° | 48° | 82% | 1019 mb | -331 ft | |||
| 09-May | 23:55 | n/a | 20° | 11 kt | Missing | 11° | 51° | 9° | 48° | 87% | 1019 mb | -451 ft | |||
| 09-May | 23:25 | n/a | 30° | 10 kt | Missing | 12° | 53° | 10° | 50° | 88% | 1017 mb | -272 ft | |||
| 09-May | 22:55 | n/a | 30° | 10 kt | Missing | 12° | 53° | 10° | 50° | 88% | 1019 mb | -331 ft | |||
| 09-May | 22:25 | n/a | 30° | 11 kt | Missing | 12° | 53° | 10° | 50° | 88% | 1017 mb | -272 ft | |||
| 09-May | 21:55 | n/a | 40° | 10 kt | Missing | 12° | 53° | 9° | 48° | 82% | 1019 mb | -331 ft | |||
| 09-May | 21:25 | n/a | 50° | 9 kt | Missing | 12° | 53° | 9° | 48° | 82% | 1017 mb | -272 ft | |||
| 09-May | 20:55 | n/a | 50° | 9 kt | Missing | 12° | 53° | 10° | 50° | 88% | 1019 mb | -331 ft | |||
| 09-May | 20:25 | n/a | 70° | 10 kt | Missing | 12° | 53° | 10° | 50° | 88% | 1018 mb | -302 ft | |||
| 09-May | 19:55 | n/a | 70° | 11 kt | Missing | 12° | 53° | 10° | 50° | 88% | 1018 mb | -302 ft | |||
| 09-May | 19:25 | n/a | 60° | 10 kt | Missing | 12° | 53° | 10° | 50° | 88% | 1018 mb | -302 ft | |||
| 09-May | 18:55 | n/a | 60° | 9 kt | Missing | 12° | 53° | 10° | 50° | 88% | 1018 mb | -302 ft |
Login
| Your browser is unsupported. upgrade your browser |
